METEOR 1-5 DEB, 58397

Orbit data source: Space-Track

METEOR 1-5 DEB, 58397 is space debris in LEO originally from a launch on Tue, 23 Jun 1970 UTC launched from the Plesetsk Missile And Space Complex (PKMTR). Debris objects in space refer to the collection of defunct objects orbiting the Earth. Examples of debris include non-operational satellites, rocket bodies, and fragments generated from explosions, collisions, or faulty payload assembly.

Loading next visibility...
Identifier
58397, 1970-047D
Orbit
LEO
Country
Flag of CISCIS
Related business
Manufacturer
VNIIEM
Mission
Spacecraft
Bus & Motor
Unknown
Mass
Unknown
Launch date (UTC)
1970-06-23 (56 years ago)
Launch vehicle
Unknown
Launch site
Plesetsk Missile And Space Complex (PKMTR)
Object type
Payload
Rocket body
Debris
Shape & HBR
Unknown shape, 0.1 m
Radar Cross Section
Small (<0.1 m²)

Expand to show TLE details & history
Last TLE update: 2 days ago

TLE from 2 days ago
0 METEOR 1-5 DEB
1 58397U 70047D   26171.19814254  .00000363  00000-0  17488-3 0  9994
2 58397  81.2157 233.2673 0030753  46.9957 313.3787 14.16560503136870
Epoch: 2026-06-20T04:45Z
TLE epoch observation values (Epoch: 2026-06-20T04:45:19.515Z)
Latitude
0.00002°
Longitude
-106.48022°
Altitude
824.709 km
Speed
7.449 km/s
True Right ascension
15h 33m 04s
True Declination
0° 00' 00"
Sunlit
Object was in full shadow at epoch
Visualization orbit readout
Latitude
Unknown
Longitude
Unknown
Altitude
Unknown
Speed
Unknown
Apparent Right ascension
Unknown
Apparent Declination
Unknown
Sunlit
N/A
Visualization observer readout
Local Sidereal Time
21:24:18
Azimuth
Unknown
Elevation
Unknown
Doppler factor
Unknown
Orbital elements
Apogee altitude
856.355 km
Perigee altitude
811.995 km
Semi-major axis
7,212.312 km
Eccentricity
0.00308
Inclination
81.2157°
RAAN
233.2673°
Arg. of periapsis
46.9957°
True anomaly
313.12189°
Mean anomaly
313.3787°
Eccentric anomaly
313.25036°
Mean motion
3.54349 °/min
Orbital period
101.59 mins
BSTAR
0.00017488
Loading maneuver chart data...
Computing Atmospheric mass density...
Loading historical data...
Loading historical data...
Loading historical data...
Loading historical data...
Loading historical data...
Loading historical data...
Loading historical data...
Other satellites on launch #47 in the year 1970 (1970-06-23 UTC)

Documentation

Showing up to 5 results
|